[[{"header":{"parameterUnit":"m.s-1","parameterCategory":1,"la1":30.2991,"la2":30.254,"lo1":-89.0895,"lo2":-89.0444,"dy":0.0017,"dx":0.0017,"nx":28,"ny":28,"refTime":"2025-11-13T09:00:00:Z","depth":0,"parameterNumber":2,"parameterNumberName":"U-component_of_WINDS"},"data":[0,0,0,0,0,0,0,0,0,0,0,0,0,0,0,0,0,0,0,0,0,0,0,0,0,0,0,0,0,0,0,0,0,0,0,0,0,0,0,0,0,0,0,0,0,0,0,0,0,0,0,0,0,0,0,0,0,0,0.9487,0.9488,0,0.9502,0.9502,0.9503,0.9475,0.9474,0.9473,0.9472,0.9486,0.9488,0.9489,0,0,0,0,0,0,0,0,0,0,0,0,0,0.9435,0.9436,0.9487,0.9488,0.9488,0.9502,0.9502,0.9503,0.9475,0.9474,0.9472,0.9471,0.9486,0.9488,0.9489,0,0,0,0,0,0,0,0,0,0,0,0,0,0.9455,0.9437,0.9487,0.9476,0.9475,0.9502,0.9502,0.9503,0.9475,0.9474,0.9472,0.9471,0.9486,0.9487,0.9489,0.9529,0,0,0.9495,0.9496,0,0,0,0,0,0,0,0,0.9454,0.9457,0.9477,0.9476,0.9476,0.9485,0.9489,0.9511,0.9475,0.9475,0.9472,0.947,0.9487,0.9489,0.9495,0.9529,0.953,0.9495,0.9496,0.9497,0.9498,0,0,0,0,0,0,0,0.9452,0.9456,0.9493,0.9478,0.9477,0.947,0.9471,0.9493,0.9489,0.9475,0.9473,0.9475,0.9486,0.9493,0.9495,0.953,0.9495,0.9497,0.9498,0.9499,0.9599,0.96,0,0,0,0,0,0,0.9453,0.9455,0.9493,0.9494,0.9461,0.9472,0.9473,0.9483,0.9488,0.9488,0.9476,0.9474,0.949,0.9493,0.9495,0.9542,0.9497,0.9499,0.95,0.9597,0.9599,0.9601,0,0,0,0,0,0,0.9451,0.9456,0.9492,0.9474,0.9478,0.9474,0.9486,0.9484,0.9491,0.9489,0.9488,0.9484,0.9489,0.9492,0.9521,0.9542,0.95,0.9501,0.9596,0.9598,0.96,0.9636,0,0,0,0,0,0,0.945,0.9456,0.9471,0.9474,0.9479,0.9518,0.9487,0.9486,0.9494,0.9491,0.9496,0.9495,0.9488,0.9518,0.9523,0.9544,0.9503,0.9594,0.9597,0.9599,0.9633,0.9639,0.9645,0,0,0,0,0,0.9448,0.948,0.9472,0.9476,0.9497,0.9519,0.9521,0.9513,0.9496,0.9511,0.951,0.9495,0.9539,0.9521,0.9526,0.9548,0.9592,0.9596,0.9599,0.963,0.9638,0.9645,0,0,0,0,0,0,0.9478,0.948,0.9471,0.9505,0.9512,0.9514,0.9532,0.9521,0.9533,0.953,0.9518,0.952,0.9551,0.9552,0.9532,0.9587,0.9563,0.9568,0.9585,0.9592,0.9598,0.9597,0.9504,0,0,0,0,0,0.9489,0.9506,0.9507,0.9536,0.9541,0.9536,0.9545,0.9538,0.9545,0.9548,0.9549,0.9556,0.9572,0.9582,0.9596,0.9633,0.9634,0.9651,0.9657,0.9662,0.9666,0.9686,0.9694,0.9612,0.9612,0.9612,0,0,0.9511,0.9514,0.9525,0.9543,0.9547,0.9566,0.9539,0.9559,0.9573,0.9551,0.9578,0.9579,0.9587,0.962,0.9634,0.9622,0.9689,0.9666,0.967,0.9671,0.9691,0.9698,0.9705,0.9615,0.9614,0.9614,0,0,0.956,0.9564,0.959,0.9595,0.9603,0.96,0.9606,0.9611,0.9611,0.9638,0.9622,0.9638,0.9665,0.9671,0.9678,0.9731,0.9718,0.9736,0.9767,0.9787,0.9793,0.9799,0.9818,0.9825,0.974,0.974,0.974,0,0.9586,0.9613,0.9604,0.9626,0.9634,0.9616,0.9642,0.9648,0.966,0.9666,0.9652,0.9686,0.969,0.9724,0.9738,0.9744,0.9751,0.9735,0.9793,0.9799,0.9804,0.9822,0.9829,0.9742,0.9742,0.9742,0.9742,0,0.9645,0.9664,0.9684,0.9697,0.9707,0.9731,0.9726,0.9738,0.973,0.9729,0.9757,0.9761,0.9776,0.9784,0.9776,0.9818,0.981,0.9795,0.977,0.9814,0.9831,0.9838,0.9745,0.9745,0.9744,0.9743,0,0,0.9712,0.9721,0.9728,0.9734,0.9742,0.9757,0.978,0.9795,0.9806,0.9815,0.9835,0.9858,0.9845,0.9853,0.9846,0.9863,0.9906,0.9846,0.9846,0.9857,0.9953,0.9964,0.9972,0.9898,0.9899,0.99,0.9952,0,0.9761,0.9802,0.9795,0.9834,0.9852,0.9836,0.9856,0.9863,0.9863,0.9878,0.9878,0.9895,0.9876,0.9881,0.9897,0.9897,0.9925,0.9894,0.9916,0.9917,0.9914,0.9981,0.9992,1.0041,0.9959,0.996,0.9961,0,0.9824,0.9836,0.9877,0.9883,0.9891,0.9909,0.9923,0.9938,0.9946,0.9945,0.9954,0.9944,0.9968,0.9944,0.9976,0.9955,0.9964,0.9965,0.9967,0.9969,0.9941,0.9984,1.0056,1.0064,0.9971,0.997,0.9969,0,0.9869,0.9896,0.9924,0.993,0.9938,0.9951,0.9955,0.9962,0.9972,0.9984,0.9991,1.0005,1.0013,1.0025,1.002,1.0003,1.0054,1.0029,1.0053,1.0054,1.0065,1.0064,1.0139,1.0071,1.0071,1.007,1.007,0,0.9924,0.995,0.9945,0.9962,0.9991,0.9983,1.0012,1.0014,1.0021,1.0038,1.0025,1.0042,1.0034,1.0051,1.0047,1.0075,1.0078,1.0078,1.0077,1.0079,1.0079,1.0084,1.0081,1.0072,1.0072,1.0072,1.0071,0,0.9979,0.9977,1.0007,1.0012,1.0014,1.0035,1.004,1.0057,1.0056,1.0078,1.0083,1.0082,1.0101,1.0097,1.0117,1.0115,1.015,1.0145,1.0147,1.0146,1.0171,1.0169,1.0252,1.0263,1.0188,1.0188,1.0189,0,1.0015,1.0034,1.0042,1.0054,1.0059,1.0077,1.0087,1.0081,1.0092,1.0104,1.0119,1.0137,1.0151,1.0182,1.0182,1.0198,1.0193,1.0221,1.0195,1.0197,1.0194,1.0192,1.0195,1.0226,1.0227,1.0228,1.0228,0,1.0078,1.0076,1.0091,1.0107,1.012,1.0132,1.0142,1.0152,1.0147,1.016,1.018,1.019,1.0212,1.023,1.0245,1.0249,1.0238,1.0237,1.0243,1.0246,1.0247,1.0247,1.0161,1.0235,1.0234,1.0234,1.0233,1.0233,1.0124,1.0141,1.015,1.0168,1.0175,1.0186,1.0202,1.0204,1.022,1.0237,1.0232,1.0255,1.0263,1.0283,1.0289,1.0306,1.0295,1.0305,1.0307,1.031,1.0313,1.0245,1.0309,1.0308,1.0308,1.0308,1.0308,0,1.0186,1.0191,1.0208,1.0224,1.0238,1.0227,1.0239,1.0252,1.0271,1.0281,1.0295,1.0318,1.0336,1.0339,1.0356,1.0369,1.0364,1.0374,1.0372,1.0374,1.0321,1.0314,1.0377,1.0377,1.0377,1.0377,1.0377,1.0377,1.022,1.0249,1.0248,1.0281,1.0286,1.0308,1.0315,1.0325,1.0333,1.0359,1.0374,1.0376,1.0383,1.04,1.0416,1.0417,1.0424,1.0435,1.0433,1.0384,1.0377,1.0371,1.0364,1.0436,1.0437,1.0484,1.0485,1.0485]},{"header":{"parameterUnit":"m.s-1","parameterCategory":1,"la1":30.2991,"la2":30.254,"lo1":-89.0895,"lo2":-89.0444,"dy":0.0017,"dx":0.0017,"nx":28,"ny":28,"refTime":"2025-11-13T09:00:00:Z","depth":0,"parameterNumber":3,"parameterNumberName":"V-component_of_WINDS"},"data":[0,0,0,0,0,0,0,0,0,0,0,0,0,0,0,0,0,0,0,0,0,0,0,0,0,0,0,0,0,0,0,0,0,0,0,0,0,0,0,0,0,0,0,0,0,0,0,0,0,0,0,0,0,0,0,0,0,0,-0.8748,-0.8749,0,-0.8809,-0.881,-0.8811,-0.8835,-0.8835,-0.8835,-0.8835,-0.8896,-0.8897,-0.8899,0,0,0,0,0,0,0,0,0,0,0,0,0,-0.8651,-0.8653,-0.8748,-0.8749,-0.8749,-0.8809,-0.881,-0.8811,-0.8835,-0.8835,-0.8835,-0.8835,-0.8895,-0.8897,-0.8899,0,0,0,0,0,0,0,0,0,0,0,0,0,-0.8701,-0.8654,-0.8748,-0.8769,-0.8771,-0.8809,-0.881,-0.8811,-0.8835,-0.8835,-0.8835,-0.8835,-0.8894,-0.8897,-0.8899,-0.892,0,0,-0.8907,-0.8909,0,0,0,0,0,0,0,0,-0.8698,-0.8704,-0.8765,-0.8768,-0.877,-0.8814,-0.8798,-0.8847,-0.8835,-0.8811,-0.8835,-0.8835,-0.8869,-0.8873,-0.8885,-0.8923,-0.8925,-0.8908,-0.8909,-0.891,-0.8911,0,0,0,0,0,0,0,-0.8695,-0.8702,-0.8772,-0.8766,-0.8769,-0.8775,-0.8782,-0.8808,-0.884,-0.8813,-0.8815,-0.8822,-0.887,-0.8883,-0.8887,-0.8926,-0.8908,-0.891,-0.8912,-0.8913,-0.8985,-0.8985,0,0,0,0,0,0,-0.8688,-0.8699,-0.877,-0.8774,-0.8733,-0.8777,-0.8785,-0.88,-0.884,-0.8846,-0.8822,-0.8823,-0.8878,-0.8884,-0.8889,-0.8917,-0.891,-0.8913,-0.8914,-0.8985,-0.8985,-0.8986,0,0,0,0,0,0,-0.8686,-0.8694,-0.8768,-0.8737,-0.8747,-0.8779,-0.8796,-0.8802,-0.8814,-0.8847,-0.8853,-0.8829,-0.8878,-0.8885,-0.8912,-0.8919,-0.8914,-0.8916,-0.8984,-0.8985,-0.8985,-0.8971,0,0,0,0,0,0,-0.8683,-0.8693,-0.8701,-0.8737,-0.8748,-0.879,-0.8797,-0.8803,-0.8819,-0.8821,-0.8855,-0.886,-0.8879,-0.8908,-0.8915,-0.8922,-0.8918,-0.8984,-0.8985,-0.8985,-0.8971,-0.8971,-0.8971,0,0,0,0,0,-0.8679,-0.8694,-0.8701,-0.871,-0.8759,-0.8791,-0.8797,-0.8818,-0.8819,-0.8828,-0.8849,-0.8859,-0.8917,-0.8911,-0.8919,-0.8927,-0.8984,-0.8984,-0.8985,-0.8971,-0.8971,-0.8971,0,0,0,0,0,0,-0.8657,-0.8699,-0.8708,-0.8735,-0.8759,-0.8795,-0.8806,-0.8817,-0.8841,-0.8842,-0.8867,-0.8874,-0.8899,-0.8916,-0.8908,-0.895,-0.8951,-0.8954,-0.8938,-0.8938,-0.8938,-0.8933,-0.8921,0,0,0,0,0,-0.8655,-0.8677,-0.8713,-0.8733,-0.8745,-0.8773,-0.8788,-0.8802,-0.8828,-0.8838,-0.8861,-0.8886,-0.891,-0.8925,-0.8948,-0.8974,-0.8982,-0.8983,-0.8983,-0.8983,-0.8985,-0.9001,-0.9002,-0.8988,-0.8988,-0.8988,0,0,-0.8651,-0.8677,-0.869,-0.8729,-0.875,-0.8772,-0.8782,-0.8805,-0.8822,-0.8842,-0.8869,-0.8887,-0.8916,-0.8943,-0.8955,-0.8957,-0.899,-0.8984,-0.8984,-0.8985,-0.9001,-0.9003,-0.9004,-0.8989,-0.8989,-0.8989,0,0,-0.8657,-0.8678,-0.8698,-0.8719,-0.8751,-0.877,-0.8774,-0.8809,-0.8822,-0.885,-0.8866,-0.8886,-0.8927,-0.8947,-0.8963,-0.8978,-0.8988,-0.8985,-0.8984,-0.8999,-0.9,-0.9001,-0.9007,-0.9009,-0.8986,-0.8986,-0.8986,0,-0.8648,-0.8683,-0.8706,-0.8729,-0.8747,-0.8767,-0.8787,-0.8806,-0.8844,-0.8855,-0.8857,-0.8909,-0.893,-0.8962,-0.8966,-0.8977,-0.8984,-0.8981,-0.8998,-0.9,-0.9001,-0.9007,-0.9009,-0.8986,-0.8986,-0.8986,-0.8986,0,-0.8671,-0.8695,-0.8707,-0.8744,-0.8763,-0.8784,-0.8811,-0.8827,-0.884,-0.8859,-0.8888,-0.8914,-0.8944,-0.8953,-0.8966,-0.8988,-0.8988,-0.8994,-0.8996,-0.9001,-0.9007,-0.901,-0.8985,-0.8985,-0.8985,-0.8985,0,0,-0.8662,-0.8714,-0.8718,-0.8735,-0.8772,-0.8791,-0.8814,-0.8844,-0.8858,-0.8883,-0.8903,-0.8938,-0.8944,-0.8962,-0.8977,-0.899,-0.9001,-0.8995,-0.8996,-0.8995,-0.9028,-0.9024,-0.9026,-0.9009,-0.9009,-0.901,-0.9026,0,-0.8673,-0.8715,-0.8738,-0.877,-0.8793,-0.8814,-0.8834,-0.8858,-0.8877,-0.8899,-0.892,-0.8944,-0.895,-0.8961,-0.8975,-0.8997,-0.9008,-0.8996,-0.9028,-0.9029,-0.902,-0.9029,-0.9024,-0.9038,-0.9029,-0.9029,-0.9029,0,-0.869,-0.8717,-0.8752,-0.8788,-0.8798,-0.8816,-0.8846,-0.8867,-0.8896,-0.8909,-0.893,-0.8945,-0.897,-0.8971,-0.9006,-0.8997,-0.9012,-0.9024,-0.9026,-0.9029,-0.9029,-0.9034,-0.9043,-0.9045,-0.9033,-0.9033,-0.9033,0,-0.8681,-0.8726,-0.8753,-0.8767,-0.8809,-0.8821,-0.884,-0.8869,-0.8886,-0.8912,-0.8924,-0.8953,-0.8968,-0.899,-0.9013,-0.9012,-0.9047,-0.9049,-0.9058,-0.9058,-0.9064,-0.9063,-0.9077,-0.9073,-0.9073,-0.9073,-0.9073,0,-0.869,-0.8711,-0.875,-0.8766,-0.879,-0.8816,-0.8839,-0.8859,-0.8885,-0.8906,-0.8925,-0.8945,-0.8974,-0.8997,-0.9015,-0.9042,-0.9049,-0.906,-0.9065,-0.9058,-0.9057,-0.9068,-0.9068,-0.9074,-0.9073,-0.9073,-0.9073,0,-0.8684,-0.8711,-0.8742,-0.878,-0.879,-0.8806,-0.8839,-0.8856,-0.8876,-0.8903,-0.891,-0.8942,-0.897,-0.8996,-0.9033,-0.9045,-0.9073,-0.9078,-0.9063,-0.9066,-0.9074,-0.9073,-0.9095,-0.9099,-0.9092,-0.9092,-0.9092,0,-0.8688,-0.8705,-0.8746,-0.8762,-0.878,-0.8805,-0.8823,-0.885,-0.8868,-0.8903,-0.8916,-0.8946,-0.8971,-0.9016,-0.9042,-0.9071,-0.9077,-0.9083,-0.9082,-0.9075,-0.9078,-0.9077,-0.9079,-0.9083,-0.9083,-0.9083,-0.9083,0,-0.8693,-0.8706,-0.8732,-0.8762,-0.8784,-0.8809,-0.8835,-0.8847,-0.8879,-0.8898,-0.8928,-0.8947,-0.8986,-0.9016,-0.9048,-0.9067,-0.908,-0.9083,-0.9087,-0.908,-0.9071,-0.9077,-0.9063,-0.9082,-0.9082,-0.9082,-0.9082,-0.9082,-0.8692,-0.8709,-0.874,-0.8769,-0.8792,-0.8816,-0.8834,-0.8857,-0.8883,-0.8917,-0.8931,-0.8962,-0.8992,-0.9036,-0.9055,-0.908,-0.9082,-0.9087,-0.9089,-0.909,-0.9089,-0.9068,-0.9085,-0.9085,-0.9085,-0.9086,-0.9086,0,-0.8699,-0.872,-0.8746,-0.8783,-0.8805,-0.8817,-0.8847,-0.8865,-0.8891,-0.8919,-0.8944,-0.8979,-0.9008,-0.9037,-0.9068,-0.9082,-0.9089,-0.9089,-0.9088,-0.9093,-0.9084,-0.9078,-0.9083,-0.9083,-0.9083,-0.9083,-0.9083,-0.9083,-0.8704,-0.8733,-0.875,-0.879,-0.8812,-0.8842,-0.8858,-0.8881,-0.8903,-0.8941,-0.8966,-0.8985,-0.9014,-0.9047,-0.9075,-0.9083,-0.9094,-0.9092,-0.9102,-0.9093,-0.9093,-0.9093,-0.9088,-0.9094,-0.9094,-0.9108,-0.9108,-0.9108]}]]